User: anonymous   Login
Location: Unspecified
(0.0000°N, 0.0000°E)
Time: 20:01:49
(UTC+00:00)
Language:

PROITERES - Orbit

View from above orbital plane
View from above orbital plane
View from above satellite
View from above satellite

Ground track
Ground track

The orbit data is extracted from the following two-line orbital elements,

1 38756U 12047B   18017.34749975  .00000043  00000-0  14038-4 0  9995
2 38756  98.2942 152.4632 0012601 152.7227 207.4651 14.76440723288443
Epoch (UTC): 17 January 2018 08:20:23
Eccentricity: 0.0012601
inclination: 98.2942°
perigee height: 632 km
apogee height: 649 km
right ascension of ascending node: 152.4632°
argument of perigee: 152.7227°
revolutions per day: 14.76440723
mean anomaly at epoch: 207.4651°
orbit number at epoch: 28844

The dashed part of the orbit path shows where the satellite is in the earth's shadow,  

DLR